| time (UTC) | temp F | wind direction | speed knots | gust knots | rain 1hr in | rain 24hr in | rain mn in | humidity % | barometer mb |
| 20260505072813 | 72 | 137 | 0.9 | 1.7 | 0.00 | 0.67 | 0.66 | 90 | 1012.3 |
| 20260505072313 | 72 | 170 | 0.9 | 1.7 | 0.00 | 0.67 | 0.66 | 89 | 1012.3 |
| 20260505071813 | 72 | 135 | 0.9 | 2.6 | 0.00 | 0.67 | 0.66 | 89 | 1012.4 |
| 20260505071313 | 73 | 104 | 0.9 | 2.6 | 0.00 | 0.67 | 0.66 | 89 | 1012.4 |
| 20260505070813 | 73 | 251 | 0.0 | 0.9 | 0.00 | 0.67 | 0.66 | 89 | 1012.4 |
| 20260505070313 | 72 | 206 | 0.0 | 0.9 | 0.00 | 0.67 | 0.66 | 90 | 1012.5 |
| 20260505065813 | 72 | 132 | 0.0 | 0.9 | 0.00 | 0.67 | 0.66 | 90 | 1012.5 |
| 20260505065313 | 72 | 110 | 0.0 | 2.6 | 0.00 | 0.67 | 0.66 | 90 | 1012.4 |
| 20260505064813 | 72 | 136 | 0.9 | 2.6 | 0.00 | 0.67 | 0.66 | 90 | 1012.6 |
| 20260505064313 | 72 | 295 | 0.9 | 4.3 | 0.00 | 0.67 | 0.66 | 89 | 1012.7 |
| 20260505063813 | 72 | 15 | 0.9 | 2.6 | 0.00 | 0.67 | 0.66 | 89 | 1012.7 |
| 20260505063313 | 73 | 161 | 0.9 | 2.6 | 0.00 | 0.67 | 0.66 | 88 | 1013.0 |
| 20260505062813 | 73 | 262 | 0.0 | 0.0 | 0.00 | 0.67 | 0.66 | 89 | 1013.0 |
| 20260505062313 | 73 | 311 | 0.9 | 2.6 | 0.00 | 0.67 | 0.66 | 89 | 1013.1 |
| 20260505061313 | 74 | 274 | 0.0 | 0.9 | 0.01 | 0.67 | 0.66 | 88 | 1013.0 |
| 20260505060812 | 74 | 244 | 0.9 | 1.7 | 0.01 | 0.68 | 0.66 | 87 | 1013.1 |
| 20260505060312 | 74 | 251 | 0.9 | 2.6 | 0.01 | 0.71 | 0.66 | 86 | 1013.1 |
| 20260505055812 | 74 | 238 | 0.9 | 2.6 | 0.01 | 0.74 | 0.66 | 88 | 1013.1 |
| 20260505055312 | 75 | 262 | 0.9 | 2.6 | 0.01 | 0.78 | 0.66 | 88 | 1013.2 |
| 20260505054813 | 75 | 305 | 0.0 | 1.7 | 0.01 | 0.81 | 0.66 | 87 | 1013.1 |
| 20260505054312 | 75 | 234 | 0.0 | 0.9 | 0.01 | 0.83 | 0.66 | 86 | 1013.2 |
| 20260505053813 | 74 | 193 | 0.0 | 0.9 | 0.01 | 0.86 | 0.66 | 86 | 1013.2 |
| 20260505053312 | 74 | 228 | 0.0 | 0.0 | 0.02 | 0.87 | 0.66 | 88 | 1013.3 |
| 20260505052813 | 74 | 215 | 0.0 | 1.7 | 0.02 | 0.89 | 0.66 | 88 | 1013.3 |
| 20260505052313 | 73 | 269 | 0.0 | 0.9 | 0.02 | 0.90 | 0.66 | 89 | 1013.4 |
| 20260505051813 | 73 | 256 | 0.0 | 0.9 | 0.03 | 0.91 | 0.66 | 91 | 1013.6 |
| 20260505051313 | 72 | 292 | 0.0 | 0.0 | 0.02 | 0.91 | 0.65 | 89 | 1013.6 |
| 20260505050812 | 72 | 330 | 0.0 | 0.9 | 0.02 | 0.91 | 0.65 | 90 | 1013.8 |
| 20260505041312 | 70 | 219 | 0.0 | 0.9 | 0.04 | 1.12 | 0.63 | 92 | 1014.4 |
| 20260505035813 | 70 | 201 | 0.0 | 1.7 | 0.08 | 1.21 | 0.63 | 92 | 1014.8 |
| 20260505035313 | 70 | 212 | 0.9 | 1.7 | 0.09 | 1.22 | 0.63 | 92 | 1014.8 |
| 20260505034812 | 70 | 228 | 0.0 | 0.0 | 0.09 | 1.23 | 0.63 | 92 | 1014.7 |
| 20260505033814 | 70 | 229 | 0.0 | 0.0 | 0.09 | 1.25 | 0.62 | 93 | 1014.8 |
| 20260505033313 | 70 | 229 | 0.0 | 0.0 | 0.10 | 1.27 | 0.62 | 92 | 1014.7 |
| 20260505032312 | 70 | 229 | 0.0 | 0.0 | 0.10 | 1.28 | 0.61 | 94 | 1014.8 |
| 20260505031813 | 69 | 229 | 0.0 | 0.9 | 0.09 | 1.28 | 0.60 | 93 | 1014.9 |
| 20260505030813 | 69 | 229 | 0.0 | 0.0 | 0.08 | 1.27 | 0.58 | 94 | 1015.1 |
| 20260505025812 | 69 | 229 | 0.0 | 1.7 | 0.08 | 1.26 | 0.55 | 94 | 1015.2 |
| 20260505025312 | 70 | 242 | 0.0 | 0.9 | 0.09 | 1.26 | 0.54 | 95 | 1015.2 |
| 20260505024813 | 70 | 242 | 0.0 | 0.9 | 0.11 | 1.26 | 0.54 | 94 | 1015.1 |
| 20260505024313 | 70 | 228 | 0.0 | 0.0 | 0.12 | 1.26 | 0.54 | 94 | 1015.1 |
| 20260505023812 | 70 | 225 | 0.0 | 0.0 | 0.11 | 1.25 | 0.53 | 94 | 1015.2 |
| 20260505023312 | 69 | 223 | 0.9 | 2.6 | 0.11 | 1.24 | 0.52 | 93 | 1015.2 |
| 20260505022812 | 69 | 228 | 1.7 | 2.6 | 0.13 | 1.24 | 0.52 | 92 | 1015.2 |
| 20260505022312 | 70 | 246 | 0.0 | 0.0 | 0.15 | 1.23 | 0.51 | 94 | 1015.1 |
| 20260505021812 | 69 | 246 | 0.0 | 0.9 | 0.18 | 1.23 | 0.51 | 93 | 1015.1 |
| 20260505021312 | 69 | 243 | 0.9 | 1.7 | 0.20 | 1.22 | 0.50 | 93 | 1015.2 |
| 20260505020812 | 69 | 232 | 1.7 | 4.3 | 0.23 | 1.22 | 0.50 | 92 | 1015.0 |
| 20260505020313 | 69 | 247 | 0.9 | 4.3 | 0.25 | 1.22 | 0.49 | 92 | 1015.0 |
| 20260505015813 | 69 | 301 | 1.7 | 2.6 | 0.26 | 1.20 | 0.47 | 92 | 1014.9 |
| 20260505014813 | 69 | 353 | 0.9 | 7.0 | 0.25 | 1.24 | 0.43 | 92 | 1014.8 |
| 20260505014314 | 69 | 331 | 1.7 | 7.8 | 0.25 | 1.24 | 0.42 | 92 | 1014.9 |
| 20260505013813 | 68 | 244 | 1.7 | 5.2 | 0.26 | 1.24 | 0.42 | 92 | 1015.0 |
| 20260505013313 | 68 | 285 | 1.7 | 7.0 | 0.26 | 1.23 | 0.41 | 93 | 1015.0 |
| 20260505010812 | 68 | 254 | 0.0 | 2.6 | 0.19 | 1.09 | 0.27 | 92 | 1015.1 |
| 20260505010313 | 68 | 243 | 0.9 | 4.3 | 0.16 | 1.06 | 0.24 | 92 | 1015.1 |
| 20260505005812 | 68 | 8 | 1.7 | 7.0 | 0.13 | 1.03 | 0.21 | 91 | 1015.0 |
| 20260505005312 | 68 | 341 | 4.3 | 10.4 | 0.10 | 1.00 | 0.18 | 91 | 1014.9 |
| 20260505004312 | 68 | 28 | 1.7 | 8.7 | 0.09 | 0.99 | 0.17 | 91 | 1014.8 |
| 20260505003812 | 68 | 14 | 4.3 | 10.4 | 0.08 | 0.98 | 0.16 | 91 | 1014.7 |
| 20260505003312 | 68 | 35 | 3.5 | 10.4 | 0.07 | 0.97 | 0.15 | 91 | 1014.6 |
| 20260505002813 | 68 | 37 | 2.6 | 10.4 | 0.06 | 0.96 | 0.14 | 91 | 1014.5 |
| 20260505001813 | 69 | 29 | 3.5 | 8.7 | 0.04 | 0.94 | 0.12 | 91 | 1014.4 |
| 20260505001313 | 69 | 28 | 2.6 | 10.4 | 0.02 | 0.92 | 0.10 | 90 | 1014.5 |
| 20260504235313 | 69 | 76 | 6.1 | 12.2 | 0.01 | 0.90 | 0.08 | 89 | 1014.2 |
| 20260504234312 | 69 | 28 | 5.2 | 11.3 | 0.01 | 0.90 | 0.08 | 89 | 1014.1 |
| 20260504233812 | 69 | 89 | 4.3 | 10.4 | 0.01 | 0.90 | 0.08 | 89 | 1014.1 |
| 20260504233314 | 69 | 18 | 5.2 | 11.3 | 0.01 | 0.90 | 0.08 | 89 | 1014.1 |
| 20260504232813 | 69 | 42 | 4.3 | 10.4 | 0.01 | 0.90 | 0.08 | 89 | 1013.9 |
| 20260504232311 | 69 | 39 | 6.1 | 14.8 | 0.01 | 0.90 | 0.08 | 89 | 1013.7 |
| 20260504231812 | 69 | 19 | 5.2 | 17.4 | 0.02 | 0.90 | 0.08 | 89 | 1013.6 |
| 20260504231312 | 69 | 53 | 7.8 | 18.2 | 0.03 | 0.90 | 0.08 | 88 | 1013.4 |
| 20260504230813 | 69 | 45 | 8.7 | 14.8 | 0.04 | 0.89 | 0.07 | 87 | 1013.3 |
| 20260504230312 | 69 | 55 | 7.0 | 17.4 | 0.06 | 0.89 | 0.07 | 87 | 1013.4 |
| 20260504225812 | 69 | 43 | 5.2 | 11.3 | 0.07 | 0.89 | 0.07 | 88 | 1013.6 |
| 20260504225312 | 69 | 75 | 2.6 | 13.0 | 0.07 | 0.89 | 0.07 | 88 | 1013.8 |
| 20260504224812 | 69 | 85 | 4.3 | 12.2 | 0.07 | 0.89 | 0.07 | 88 | 1013.8 |
| 20260504224312 | 69 | 78 | 2.6 | 10.4 | 0.07 | 0.89 | 0.07 | 88 | 1013.8 |
| 20260504223812 | 69 | 31 | 1.7 | 11.3 | 0.07 | 0.89 | 0.07 | 89 | 1013.6 |
| 20260504223313 | 69 | 80 | 3.5 | 10.4 | 0.07 | 0.89 | 0.07 | 88 | 1013.6 |
| 20260504222812 | 69 | 87 | 4.3 | 7.8 | 0.07 | 0.89 | 0.07 | 88 | 1013.5 |
| 20260504222312 | 69 | 48 | 3.5 | 10.4 | 0.07 | 0.89 | 0.07 | 88 | 1013.5 |
| 20260504221812 | 70 | 47 | 2.6 | 10.4 | 0.06 | 0.88 | 0.06 | 87 | 1013.5 |
| 20260504221313 | 70 | 47 | 2.6 | 7.8 | 0.05 | 0.87 | 0.05 | 86 | 1013.5 |
| 20260504220811 | 70 | 88 | 2.6 | 7.8 | 0.03 | 0.85 | 0.03 | 85 | 1013.7 |
| 20260504220311 | 71 | 112 | 3.5 | 7.8 | 0.01 | 0.83 | 0.01 | 84 | 1013.4 |
| 20260504215812 | 71 | 56 | 3.5 | 8.7 | 0.00 | 0.82 | 0.00 | 83 | 1013.5 |
| 20260504215312 | 71 | 58 | 2.6 | 8.7 | 0.00 | 0.82 | 0.00 | 81 | 1013.7 |
| 20260504214812 | 71 | 88 | 4.3 | 7.8 | 0.00 | 0.82 | 0.00 | 81 | 1013.8 |
| 20260504214312 | 71 | 31 | 1.7 | 7.8 | 0.00 | 0.82 | 0.00 | 81 | 1013.6 |
| 20260504213312 | 71 | 50 | 3.5 | 11.3 | 0.00 | 0.82 | 0.00 | 81 | 1013.3 |
| 20260504212813 | 71 | 342 | 4.3 | 17.4 | 0.00 | 0.82 | 0.00 | 82 | 1013.1 |
| 20260504212312 | 71 | 40 | 4.3 | 13.0 | 0.00 | 0.82 | 0.00 | 82 | 1013.1 |
| 20260504211812 | 71 | 59 | 3.5 | 11.3 | 0.00 | 0.82 | 0.00 | 82 | 1013.1 |
| 20260504211312 | 71 | 55 | 5.2 | 10.4 | 0.00 | 0.82 | 0.00 | 82 | 1013.1 |
| 20260504210812 | 71 | 71 | 4.3 | 10.4 | 0.00 | 0.82 | 0.00 | 82 | 1012.9 |
| 20260504210312 | 71 | 70 | 5.2 | 12.2 | 0.00 | 0.82 | 0.00 | 82 | 1012.9 |
| 20260504205812 | 71 | 73 | 3.5 | 8.7 | 0.00 | 0.82 | 0.00 | 82 | 1013.1 |
| 20260504205312 | 71 | 62 | 5.2 | 13.0 | 0.00 | 0.82 | 0.00 | 82 | 1013.2 |
| 20260504204812 | 71 | 20 | 2.6 | 10.4 | 0.00 | 0.82 | 0.00 | 82 | 1013.2 |
| 20260504204312 | 71 | 84 | 5.2 | 11.3 | 0.00 | 0.82 | 0.00 | 83 | 1013.2 |
| 20260504203812 | 71 | 60 | 4.3 | 10.4 | 0.00 | 0.82 | 0.00 | 83 | 1013.3 |
| 20260504203312 | 72 | 58 | 5.2 | 12.2 | 0.00 | 0.82 | 0.00 | 83 | 1013.2 |
| 20260504202813 | 72 | 38 | 5.2 | 12.2 | 0.00 | 0.82 | 0.00 | 83 | 1013.2 |
| 20260504202312 | 72 | 51 | 4.3 | 12.2 | 0.00 | 0.82 | 0.00 | 83 | 1013.2 |
| 20260504201811 | 72 | 37 | 5.2 | 10.4 | 0.00 | 0.82 | 0.00 | 82 | 1013.2 |
| 20260504201312 | 72 | 28 | 7.0 | 13.0 | 0.00 | 0.82 | 0.00 | 83 | 1013.1 |
| 20260504200812 | 72 | 35 | 4.3 | 11.3 | 0.00 | 0.82 | 0.00 | 83 | 1013.0 |
| 20260504200312 | 72 | 50 | 4.3 | 12.2 | 0.00 | 0.82 | 0.00 | 83 | 1012.9 |
| 20260504195311 | 72 | 51 | 4.3 | 13.0 | 0.00 | 0.82 | 0.00 | 83 | 1012.9 |
| 20260504194812 | 72 | 37 | 5.2 | 10.4 | 0.00 | 0.82 | 0.00 | 83 | 1012.9 |
| 20260504194312 | 72 | 45 | 5.2 | 10.4 | 0.00 | 0.82 | 0.00 | 83 | 1013.0 |
| 20260504193812 | 72 | 54 | 5.2 | 13.0 | 0.00 | 0.82 | 0.00 | 83 | 1013.0 |
| 20260504193311 | 72 | 59 | 5.2 | 11.3 | 0.00 | 0.82 | 0.00 | 83 | 1013.0 |
| 20260504192811 | 72 | 49 | 5.2 | 10.4 | 0.00 | 0.82 | 0.00 | 83 | 1013.0 |
| 20260504192311 | 72 | 69 | 6.1 | 12.2 | 0.00 | 0.82 | 0.00 | 83 | 1013.0 |
| 20260504191813 | 72 | 40 | 6.1 | 12.2 | 0.00 | 0.82 | 0.00 | 84 | 1013.1 |
| 20260504191312 | 72 | 53 | 6.1 | 17.4 | 0.00 | 0.82 | 0.00 | 84 | 1013.1 |
| 20260504190811 | 72 | 55 | 6.1 | 12.2 | 0.00 | 0.82 | 0.00 | 84 | 1013.1 |
| 20260504190312 | 72 | 57 | 6.1 | 12.2 | 0.00 | 0.82 | 0.00 | 84 | 1013.0 |
| 20260504185812 | 72 | 96 | 5.2 | 12.2 | 0.00 | 0.82 | 0.00 | 84 | 1012.9 |
| 20260504185312 | 72 | 34 | 6.1 | 13.9 | 0.00 | 0.82 | 0.00 | 84 | 1013.0 |
| 20260504184812 | 72 | 68 | 6.1 | 12.2 | 0.00 | 0.82 | 0.00 | 85 | 1013.1 |
| 20260504184311 | 72 | 54 | 5.2 | 11.3 | 0.00 | 0.82 | 0.00 | 84 | 1013.2 |
| 20260504183811 | 72 | 51 | 6.1 | 13.9 | 0.00 | 0.82 | 0.00 | 84 | 1013.2 |
| 20260504183311 | 72 | 58 | 6.1 | 12.2 | 0.00 | 0.82 | 0.00 | 84 | 1013.3 |
| 20260504182812 | 72 | 58 | 5.2 | 17.4 | 0.00 | 0.82 | 0.00 | 84 | 1013.3 |
| 20260504182311 | 72 | 50 | 6.1 | 13.0 | 0.00 | 0.82 | 0.00 | 84 | 1013.3 |
| 20260504181812 | 72 | 35 | 5.2 | 14.8 | 0.00 | 0.82 | 0.00 | 84 | 1013.3 |
| 20260504181311 | 72 | 71 | 6.1 | 11.3 | 0.00 | 0.82 | 0.00 | 84 | 1013.5 |
| 20260504175811 | 73 | 54 | 4.3 | 8.7 | 0.00 | 0.82 | 0.00 | 84 | 1014.0 |
| 20260504175312 | 73 | 35 | 5.2 | 11.3 | 0.00 | 0.82 | 0.00 | 84 | 1014.1 |
| 20260504174812 | 73 | 54 | 6.1 | 12.2 | 0.00 | 0.82 | 0.00 | 84 | 1014.3 |
| 20260504174311 | 73 | 69 | 5.2 | 10.4 | 0.00 | 0.82 | 0.00 | 84 | 1014.2 |
| 20260504173811 | 73 | 52 | 5.2 | 10.4 | 0.00 | 0.82 | 0.00 | 84 | 1014.2 |
| 20260504173312 | 73 | 52 | 4.3 | 12.2 | 0.00 | 0.82 | 0.00 | 84 | 1014.1 |
| 20260504172812 | 73 | 42 | 4.3 | 11.3 | 0.00 | 0.82 | 0.00 | 84 | 1014.1 |
| 20260504171812 | 73 | 76 | 4.3 | 10.4 | 0.00 | 0.82 | 0.00 | 84 | 1014.4 |
| 20260504171312 | 72 | 68 | 5.2 | 12.2 | 0.00 | 0.82 | 0.00 | 84 | 1014.5 |
| 20260504170811 | 72 | 54 | 3.5 | 15.6 | 0.00 | 0.82 | 0.00 | 84 | 1014.6 |
| 20260504170312 | 73 | 72 | 1.7 | 7.8 | 0.00 | 0.82 | 0.00 | 84 | 1014.7 |
| 20260504160311 | 73 | 33 | 5.2 | 13.0 | 0.00 | 0.82 | 0.00 | 85 | 1014.8 |
| 20260504150811 | 73 | 62 | 5.2 | 12.2 | 0.00 | 0.82 | 0.01 | 85 | 1015.2 |
| 20260504150311 | 73 | 43 | 4.3 | 12.2 | 0.00 | 0.82 | 0.01 | 85 | 1015.3 |
| 20260504141312 | 73 | 121 | 2.6 | 10.4 | 0.00 | 0.82 | 0.01 | 89 | 1015.1 |
| 20260504140811 | 73 | 66 | 3.5 | 8.7 | 0.00 | 0.82 | 0.01 | 89 | 1015.1 |
| 20260504140311 | 73 | 39 | 1.7 | 5.2 | 0.00 | 0.82 | 0.01 | 89 | 1015.2 |
| 20260504130812 | 73 | 70 | 5.2 | 10.4 | 0.00 | 0.82 | 0.01 | 87 | 1014.9 |
| 20260504130312 | 73 | 44 | 6.1 | 12.2 | 0.00 | 0.82 | 0.01 | 87 | 1014.9 |
| 20260504120311 | 73 | 34 | 5.2 | 14.8 | 0.00 | 0.82 | 0.01 | 88 | 1013.9 |
| 20260504110311 | 73 | 9 | 1.7 | 5.2 | 0.01 | 0.82 | 0.01 | 88 | 1014.2 |
| 20260504100311 | 74 | 29 | 1.7 | 4.3 | 0.00 | 0.81 | 0.00 | 88 | 1013.9 |
| 20260504081810 | 76 | 49 | 4.3 | 10.4 | 0.00 | 0.81 | 0.00 | 79 | 1013.9 |
| 20260504080811 | 77 | 11 | 3.5 | 7.8 | 0.00 | 0.81 | 0.00 | 78 | 1013.9 |
| 20260504080311 | 77 | 24 | 3.5 | 6.1 | 0.00 | 0.81 | 0.00 | 77 | 1014.0 |